Powrót do katalogu

STARLINK-5002

AktywnyŁącznośćVLEO
NORAD 53922·PAYLOAD·🇺🇸 United States

Wystrzelony Sep 24, 2022 z Cape Canaveral Space Force Station

Loading…

Następne Przeloty (najbliższe 24 godziny)

TLE

ŚwieżeSource: CelesTrak SupGP

Epoka: Sep 14, 2026, 21:44 UTC

1 53922C 22119AN  26257.90604167 -.00028865  00000+0 -18100-2 0  2570
2 53922  53.1592 183.8144 0001655  90.1576 270.3779 15.08852526    10

Śledź STARLINK-5002 w czasie rzeczywistym z AllMySat

Download on the App Store